Location: Danville Conservation Area
(38.8674°N, 91.5143°W)
Time: 10:28:04
(UTC-06:00)

ISS - Pass Details

Date: 06 December 2021
Orbit: 413 x 422 km, 51.6° (Epoch: 19 January)

Event Time Altitude Azimuth Distance (km) Brightness Sun altitude
Rises 17:04:01 0° 315° (NW) 2,382 0.3 -4.3°
Reaches altitude 10° 17:06:24 10° 330° (NNW) 1,513 -0.9 -4.7°
Maximum altitude 17:09:15 24° 27° (NNE) 918 -2.5 -5.2°
Drops below altitude 10° 17:12:04 10° 84° (E) 1,503 -1.5 -5.7°
Enters shadow 17:13:10 - 92° (E) 1,894 -1.0 -5.9°
